Weather Service Report


696 
ASUS45 KPSR 300800
RWRAZ 

PRELIMINARY ARIZONA REGIONAL HOURLY WEATHER ROUNDUP
NATIONAL WEATHER SERVICE PHOENIX AZ
100 AM MST FRI JAN 30 2015

NOTE: FAIR INDICATES FEW OR NO CLOUDS BELOW 12,000 FEET WITH NO
SIGNIFICANT WEATHER AND/OR OBSTRUCTIONS TO VISIBILITY.

AZZ001>003-036-300900-
NORTHWEST ARIZONA

CITY           SKY/WX    TMP DP  RH WIND       PRES   REMARKS
KINGMAN        LGT RAIN  49  47  93 N3        30.07F
$$

AZZ004>008-015-016-018-300900-
NORTH CENTRAL ARIZONA

CITY           SKY/WX    TMP DP  RH WIND       PRES   REMARKS
GRAND CANYON   LGT RAIN  37  35  92 E8        30.15F WCI  31
PRESCOTT       LGT RAIN  47  44  90 SE6       30.06F
FLAGSTAFF      NOT AVBL
PAYSON         LGT RAIN  46  46 100 CALM      30.13F
$$

AZZ009>014-017-300900-
NORTHEAST ARIZONA

CITY           SKY/WX    TMP DP  RH WIND       PRES   REMARKS
WINSLOW        LGT RAIN  46  43  87 E14G21    30.14F
SAINT JOHNS    CLOUDY    40  37  89 E18       30.16F WCI  31
WINDOW ROCK    LGT SNOW  35  31  85 VRB3      30.26F FOG
$$

AZZ023-300900-
GREATER PHOENIX AREA

CITY           SKY/WX    TMP DP  RH WIND       PRES   REMARKS
PHOENIX        LGT RAIN  59  57  93 E3        29.97F
LUKE AFB       DRIZZLE   58  57  96 CALM      29.98F
DEER VALLEY    LGT RAIN  58  55  90 E6        29.98F
SCOTTSDALE     LGT RAIN  59  54  83 CALM      30.00F
$$

AZZ027-028-300900-
SOUTHWEST MARICOPA COUNTY AND PINAL COUNTY

CITY           SKY/WX    TMP DP  RH WIND       PRES   REMARKS
CASA GRANDE    CLOUDY    57  55  94 CALM      30.01S
$$

AZZ503-504-507>509-300900-
SOUTHEAST ARIZONA

CITY           SKY/WX    TMP DP  RH WIND       PRES   REMARKS
TUCSON         CLOUDY    61  51  70 SE22      30.02S
DAVIS-MONTHAN  CLOUDY    61  51  69 VRB3      30.00S
NOGALES        LGT RAIN  54  51  90 SE6       30.06S
SIERRA VISTA   LGT RAIN  50  46  87 S15       30.10S
DOUGLAS        LGT RAIN  50  44  80 E15       30.11F
SAFFORD        LGT RAIN  50  47  89 E10       30.17F
$$

AZZ020-021-025-026-031-300900-
SOUTHWEST ARIZONA

CITY           SKY/WX    TMP DP  RH WIND       PRES   REMARKS
YUMA           CLOUDY    63  55  75 SE8       29.96F
$$

CAZ031-033-041-043-047-048-061-300900-
SOUTHERN CALIFORNIA

CITY           SKY/WX    TMP DP  RH WIND       PRES   REMARKS
DOWNTOWN L.A.  LGT RAIN  63  52  67 CALM      30.02S
L.A. AIRPORT   CLOUDY    62  50  64 E3        30.02S
SAN DIEGO      CLOUDY    62  56  80 N5        30.00F
BURBANK        LGT RAIN  62  45  53 N7        30.01F
ONTARIO        CLOUDY    61  47  59 W8        30.01F
RIVERSIDE      CLOUDY    61  46  57 VRB3      30.00F
PALM SPRINGS   CLOUDY    65  44  46 CALM      29.99F
EL CENTRO NAS  CLOUDY    61  49  64 CALM      29.95F
IMPERIAL       CLOUDY    60  49  66 NW3       29.94F
BLYTHE         CLOUDY    60  53  77 N7        29.96F
NEEDLES        LGT RAIN  60  49  66 N7        30.01F
$$

NVZ020-UTZ003-300900-
SOUTHERN NEVADA-UTAH

CITY           SKY/WX    TMP DP  RH WIND       PRES   REMARKS
LAS VEGAS      NOT AVBL
SALT LAKE CITY CLOUDY    38  35  89 CALM      30.22F
$$

NMZ009-TXZ055-300900-
NEW MEXICO-WEST TEXAS

CITY           SKY/WX    TMP DP  RH WIND       PRES   REMARKS
ALBUQUERQUE    LGT SNOW  36  29  75 E16       30.39F WCI  26
EL PASO        LGT RAIN  45  40  82 NE8       30.33F
$$


........................KEY........................
SKY/WX - SKY CONDITION/WEATHER
TMP    - TEMPERATURE IN FAHRENHEIT
DP     - DEW POINT IN FAHRENHEIT
RH     - RELATIVE HUMIDITY IN PERCENT
WIND   - DIRECTION AND SPEED IN MILES PER HOUR (MPH)
VRB    - VARIABLE WIND DIRECTION
PRES   - MEAN SEA LEVEL PRESSURE IN INCHES OF MERCURY
         F - FALLING PRESSURE   R - RISING PRESSURE
         S - STEADY PRESSURE
VSB    - VISIBILITY IN MILES
HX     - HEAT INDEX IN FAHRENHEIT
WCI    - WIND CHILL INDEX IN FAHRENHEIT
TC     - TEMPERATURE IN CELSIUS WHICH IS ALSO KNOWN AS
         TEMPERATURE IN CENTIGRADE
AFB    - AIR FORCE BASE
         LUKE AFB IS LUKE AIR FORCE BASE
         DAVIS-MONTHAN IS DAVIS-MONTHAN AIR FORCE BASE
NAS    - NAVAL AIR STATION
         EL CENTRO NAS IS EL CENTRO NAVAL AIR STATION
N/A    - NOT AVAILABLE

Return to Home page


Western Regional Climate Center, wrcc@dri.edu